Estación Meteorológica Peña el Pijo (Robertgarden) [ 11/16/19 01:54:19 CET ]

Fecha Hora Presion(HPa) Temp (°C) Humedad % Rocio (°C) Viento ( m/s) Direccion Lluvia 1Hora(mm) Lluvia 24H(mm) LLuvia Total(mm)
2019-Jul-20 01:01:59 1010.700 21.9 52 11.6         344.18
2019-Jul-20 02:01:50 1010.600 19.9 55 10.6         344.18
2019-Jul-20 03:01:42 1010.400 44.5 63 10.3         344.18
2019-Jul-20 04:01:44 1010.200 15.8 66 9.5         344.18
2019-Jul-20 05:05:16 1010.000 14.8 70 9.4         344.18
2019-Jul-20 06:01:46 1010.100 14.3 72 9.3         344.18
2019-Jul-20 07:02:03 1010.000 14.3 73 9.5         344.18
2019-Jul-20 08:01:42 1010.200 15.0 73 10.2         344.18
2019-Jul-20 09:01:49 1010.500 19.6 64 12.6         344.18
2019-Jul-20 10:01:49 1010.700 24.6 49 13.2         344.18
2019-Jul-20 11:01:49 1010.300 29.6 34 12.0         344.18
2019-Jul-20 12:01:44 1010.300 31.2 29 11.0         344.18
2019-Jul-20 13:01:54 1010.100 33.3 26 11.0         344.18
2019-Jul-20 14:01:43 1010.000 35.2 25 12.0         344.18
2019-Jul-20 15:02:00 1009.900 35.9 25 12.6         344.18
2019-Jul-20 16:01:42 1009.700 37.1 24 13.0         344.18
2019-Jul-20 17:01:39 1009.600 35.8 26 13.1         344.18
2019-Jul-20 18:01:38 1009.700 34.4 28 13.1         344.18
2019-Jul-20 19:01:53 1010.200 31.9 34 14.0 2.0 N     344.18
2019-Jul-20 20:01:38 1010.900 29.9 37 13.6 1.1 SSW     344.18
2019-Jul-20 21:01:45 1011.500 27.1 41 12.7         344.18
2019-Jul-20 22:01:39 1012.800 25.0 45 12.2         344.18
2019-Jul-20 23:01:51 1013.300 23.4 46 11.1         344.18

Temperatura Máxima:44°    Temperatura Mínima:14°
Presión Máxima:1013.300 Hpa    Presión Mínima:1009.600 Hpa


Volver